| time (UTC) | temp F | wind direction | speed MPH | gust MPH | rain 1hr in | rain 24hr in | rain mn in | humidity % | barometer mb |
| 20260504200205 | 80 | 194 | 7.0 | 16.0 | 0.00 | 0.00 | 0.00 | 55 | 1011.6 |
| 20260504195635 | 80 | 206 | 9.0 | 16.0 | 0.00 | 0.00 | 0.00 | 55 | 1011.8 |
| 20260504195202 | 80 | 161 | 8.0 | 14.0 | 0.00 | 0.00 | 0.00 | 54 | 1011.9 |
| 20260504194714 | 80 | 231 | 10.0 | 19.0 | 0.00 | 0.00 | 0.00 | 54 | 1012.1 |
| 20260504194121 | 80 | 229 | 10.0 | 19.0 | 0.00 | 0.00 | 0.00 | 55 | 1011.9 |
| 20260504193655 | 80 | 175 | 5.0 | 16.0 | 0.00 | 0.00 | 0.00 | 55 | 1011.9 |
| 20260504193200 | 80 | 215 | 10.0 | 21.0 | 0.00 | 0.00 | 0.00 | 54 | 1012.0 |
| 20260504192734 | 80 | 213 | 8.0 | 21.0 | 0.00 | 0.00 | 0.00 | 55 | 1012.0 |
| 20260504192117 | 79 | 225 | 9.0 | 16.0 | 0.00 | 0.00 | 0.00 | 55 | 1012.1 |
| 20260504191651 | 79 | 178 | 8.0 | 16.0 | 0.00 | 0.00 | 0.00 | 55 | 1012.3 |
| 20260504191117 | 79 | 195 | 11.0 | 16.0 | 0.00 | 0.00 | 0.00 | 55 | 1012.3 |
| 20260504190642 | 79 | 234 | 8.0 | 18.0 | 0.00 | 0.00 | 0.00 | 56 | 1012.4 |
| 20260504190155 | 79 | 168 | 8.0 | 18.0 | 0.00 | 0.00 | 0.00 | 56 | 1012.3 |
| 20260504185618 | 79 | 178 | 7.0 | 12.0 | 0.00 | 0.00 | 0.00 | 56 | 1012.3 |
| 20260504185150 | 79 | 240 | 6.0 | 18.0 | 0.00 | 0.00 | 0.00 | 59 | 1012.4 |
| 20260504184620 | 78 | 186 | 9.0 | 18.0 | 0.00 | 0.00 | 0.00 | 56 | 1012.5 |
| 20260504184132 | 78 | 163 | 8.0 | 18.0 | 0.00 | 0.00 | 0.00 | 56 | 1012.6 |
| 20260504183657 | 78 | 159 | 8.0 | 18.0 | 0.00 | 0.00 | 0.00 | 57 | 1012.7 |
| 20260504183230 | 78 | 167 | 7.0 | 14.0 | 0.00 | 0.00 | 0.00 | 58 | 1012.8 |
| 20260504182634 | 78 | 180 | 9.0 | 14.0 | 0.00 | 0.00 | 0.00 | 58 | 1013.0 |
| 20260504182116 | 78 | 157 | 6.0 | 14.0 | 0.00 | 0.00 | 0.00 | 57 | 1013.1 |
| 20260504181650 | 77 | 213 | 7.0 | 14.0 | 0.00 | 0.00 | 0.00 | 58 | 1013.0 |
| 20260504181216 | 77 | 223 | 8.0 | 18.0 | 0.00 | 0.00 | 0.00 | 57 | 1013.2 |
| 20260504180628 | 77 | 186 | 10.0 | 18.0 | 0.00 | 0.00 | 0.00 | 58 | 1013.2 |
| 20260504180154 | 77 | 225 | 6.0 | 15.0 | 0.00 | 0.00 | 0.00 | 61 | 1013.2 |
| 20260504175620 | 77 | 159 | 10.0 | 15.0 | 0.00 | 0.00 | 0.00 | 58 | 1013.3 |
| 20260504175154 | 77 | 209 | 8.0 | 16.0 | 0.00 | 0.00 | 0.00 | 58 | 1013.4 |
| 20260504174622 | 77 | 219 | 9.0 | 16.0 | 0.00 | 0.00 | 0.00 | 60 | 1013.4 |
| 20260504174131 | 76 | 170 | 9.0 | 15.0 | 0.00 | 0.00 | 0.00 | 59 | 1013.5 |
| 20260504173657 | 76 | 172 | 10.0 | 18.0 | 0.00 | 0.00 | 0.00 | 60 | 1013.6 |
| 20260504173210 | 75 | 224 | 10.0 | 18.0 | 0.00 | 0.00 | 0.00 | 60 | 1013.7 |
| 20260504172731 | 75 | 159 | 7.0 | 16.0 | 0.00 | 0.00 | 0.00 | 61 | 1013.6 |
| 20260504172141 | 75 | 203 | 10.0 | 16.0 | 0.00 | 0.00 | 0.00 | 62 | 1013.6 |
| 20260504171707 | 75 | 205 | 9.0 | 15.0 | 0.00 | 0.00 | 0.00 | 63 | 1013.7 |
| 20260504171139 | 75 | 192 | 8.0 | 16.0 | 0.00 | 0.00 | 0.00 | 63 | 1014.0 |
| 20260504170643 | 74 | 171 | 10.0 | 18.0 | 0.00 | 0.00 | 0.00 | 63 | 1014.0 |
| 20260504170154 | 74 | 227 | 11.0 | 18.0 | 0.00 | 0.00 | 0.00 | 64 | 1014.0 |
| 20260504160155 | 70 | 205 | 11.0 | 19.0 | 0.00 | 0.00 | 0.00 | 71 | 1014.8 |
| 20260504151123 | 68 | 211 | 9.0 | 13.0 | 0.00 | 0.00 | 0.00 | 75 | 1015.1 |
| 20260504150648 | 68 | 219 | 8.0 | 11.0 | 0.00 | 0.00 | 0.00 | 75 | 1015.0 |
| 20260504150121 | 68 | 197 | 6.0 | 13.0 | 0.00 | 0.00 | 0.00 | 76 | 1015.1 |
| 20260504141126 | 66 | 198 | 8.0 | 13.0 | 0.00 | 0.00 | 0.00 | 77 | 1014.9 |
| 20260504140701 | 66 | 163 | 6.0 | 14.0 | 0.00 | 0.00 | 0.00 | 77 | 1015.0 |
| 20260504140130 | 65 | 169 | 9.0 | 14.0 | 0.00 | 0.00 | 0.00 | 77 | 1015.0 |
| 20260504130623 | 63 | 196 | 2.0 | 8.0 | 0.00 | 0.00 | 0.00 | 79 | 1015.2 |
| 20260504130155 | 63 | 182 | 4.0 | 8.0 | 0.00 | 0.00 | 0.00 | 79 | 1015.2 |
| 20260504120213 | 62 | 192 | 2.0 | 9.0 | 0.00 | 0.01 | 0.00 | 79 | 1014.9 |
| 20260504110700 | 62 | 159 | 2.0 | 6.0 | 0.00 | 0.01 | 0.00 | 78 | 1014.5 |
| 20260504110124 | 62 | 171 | 2.0 | 5.0 | 0.00 | 0.01 | 0.00 | 78 | 1014.6 |
| 20260504100158 | 62 | 159 | 2.0 | 7.0 | 0.00 | 0.01 | 0.00 | 78 | 1014.8 |
| 20260504081647 | 63 | 153 | 4.0 | 6.0 | 0.00 | 0.01 | 0.00 | 73 | 1015.6 |
| 20260504081120 | 63 | 165 | 3.0 | 5.0 | 0.00 | 0.01 | 0.00 | 72 | 1015.6 |
| 20260504080647 | 64 | 148 | 3.0 | 7.0 | 0.00 | 0.01 | 0.00 | 72 | 1015.6 |
| 20260504080118 | 64 | 171 | 4.0 | 7.0 | 0.00 | 0.01 | 0.00 | 72 | 1015.7 |
| 20260504070129 | 65 | 188 | 6.0 | 10.0 | 0.00 | 0.01 | 0.00 | 69 | 1016.3 |
| 20260504060138 | 65 | 173 | 4.0 | 8.0 | 0.00 | 0.01 | 0.00 | 68 | 1017.2 |
| 20260504050618 | 65 | 150 | 5.0 | 10.0 | 0.00 | 0.01 | 0.00 | 66 | 1017.4 |
| 20260504050122 | 65 | 163 | 5.0 | 10.0 | 0.00 | 0.01 | 0.01 | 66 | 1017.5 |
| 20260504045633 | 65 | 130 | 4.0 | 8.0 | 0.00 | 0.01 | 0.01 | 65 | 1017.5 |
| 20260504045205 | 65 | 146 | 4.0 | 9.0 | 0.00 | 0.01 | 0.01 | 65 | 1017.5 |
| 20260504044633 | 65 | 119 | 5.0 | 9.0 | 0.00 | 0.01 | 0.01 | 65 | 1017.5 |
| 20260504044205 | 64 | 142 | 4.0 | 6.0 | 0.00 | 0.01 | 0.01 | 65 | 1017.5 |
| 20260504043631 | 64 | 169 | 4.0 | 7.0 | 0.00 | 0.01 | 0.01 | 65 | 1017.5 |
| 20260504043201 | 64 | 138 | 3.0 | 7.0 | 0.00 | 0.01 | 0.01 | 65 | 1017.6 |
| 20260504042728 | 64 | 150 | 4.0 | 6.0 | 0.00 | 0.01 | 0.01 | 64 | 1017.5 |
| 20260504042132 | 64 | 148 | 3.0 | 7.0 | 0.00 | 0.01 | 0.01 | 65 | 1017.5 |
| 20260504041645 | 64 | 175 | 4.0 | 7.0 | 0.00 | 0.01 | 0.01 | 65 | 1017.5 |
| 20260504041206 | 64 | 144 | 4.0 | 5.0 | 0.00 | 0.01 | 0.01 | 65 | 1017.5 |
| 20260504040631 | 63 | 144 | 3.0 | 5.0 | 0.00 | 0.01 | 0.01 | 65 | 1017.6 |
| 20260504040144 | 63 | 145 | 3.0 | 5.0 | 0.00 | 0.01 | 0.01 | 65 | 1017.7 |
| 20260504035614 | 63 | 144 | 2.0 | 5.0 | 0.00 | 0.01 | 0.01 | 66 | 1017.8 |
| 20260504035137 | 62 | 138 | 3.0 | 6.0 | 0.00 | 0.01 | 0.01 | 66 | 1017.6 |
| 20260504034711 | 62 | 159 | 4.0 | 7.0 | 0.00 | 0.01 | 0.01 | 67 | 1017.6 |
| 20260504034135 | 62 | 136 | 3.0 | 7.0 | 0.00 | 0.01 | 0.01 | 67 | 1017.6 |
| 20260504033709 | 62 | 148 | 3.0 | 5.0 | 0.00 | 0.01 | 0.01 | 68 | 1017.6 |
| 20260504033133 | 62 | 132 | 2.0 | 5.0 | 0.00 | 0.01 | 0.01 | 69 | 1017.6 |
| 20260504032706 | 62 | 126 | 3.0 | 5.0 | 0.00 | 0.01 | 0.01 | 69 | 1017.5 |
| 20260504032130 | 62 | 142 | 0.0 | 0.0 | 0.00 | 0.01 | 0.01 | 66 | 1017.6 |
| 20260504031704 | 63 | 142 | 0.0 | 1.0 | 0.00 | 0.01 | 0.01 | 65 | 1017.4 |
| 20260504031225 | 63 | 142 | 0.0 | 1.0 | 0.00 | 0.01 | 0.01 | 64 | 1017.4 |
| 20260504030641 | 63 | 142 | 1.0 | 1.0 | 0.00 | 0.01 | 0.01 | 63 | 1017.4 |
| 20260504030143 | 64 | 142 | 0.0 | 0.0 | 0.00 | 0.01 | 0.01 | 61 | 1017.4 |
| 20260504025710 | 64 | 142 | 0.0 | 0.0 | 0.00 | 0.01 | 0.01 | 60 | 1017.4 |
| 20260504025143 | 64 | 142 | 0.0 | 0.0 | 0.00 | 0.01 | 0.01 | 60 | 1017.3 |
| 20260504024710 | 65 | 142 | 0.0 | 0.0 | 0.00 | 0.01 | 0.01 | 59 | 1017.3 |
| 20260504024122 | 65 | 142 | 0.0 | 0.0 | 0.00 | 0.01 | 0.01 | 59 | 1017.3 |
| 20260504023647 | 65 | 142 | 0.0 | 0.0 | 0.00 | 0.01 | 0.01 | 58 | 1017.3 |
| 20260504023159 | 66 | 142 | 0.0 | 0.0 | 0.00 | 0.01 | 0.01 | 56 | 1017.3 |
| 20260504022623 | 66 | 142 | 0.0 | 0.0 | 0.00 | 0.01 | 0.01 | 55 | 1017.3 |
| 20260504022157 | 67 | 142 | 0.0 | 0.0 | 0.00 | 0.01 | 0.01 | 54 | 1017.3 |
| 20260504021702 | 67 | 142 | 0.0 | 0.0 | 0.00 | 0.01 | 0.01 | 54 | 1017.2 |
| 20260504021118 | 68 | 142 | 0.0 | 0.0 | 0.00 | 0.01 | 0.01 | 52 | 1017.3 |
| 20260504020646 | 68 | 142 | 0.0 | 0.0 | 0.00 | 0.01 | 0.01 | 51 | 1017.2 |
| 20260504020219 | 69 | 142 | 0.0 | 0.0 | 0.00 | 0.01 | 0.01 | 50 | 1017.2 |
| 20260504015723 | 69 | 142 | 0.0 | 0.0 | 0.00 | 0.01 | 0.01 | 49 | 1017.2 |
| 20260504015139 | 70 | 142 | 0.0 | 0.0 | 0.00 | 0.01 | 0.01 | 47 | 1017.3 |
| 20260504014702 | 70 | 142 | 0.0 | 0.0 | 0.00 | 0.01 | 0.01 | 47 | 1017.1 |
| 20260504014127 | 70 | 142 | 0.0 | 1.0 | 0.00 | 0.01 | 0.01 | 45 | 1016.9 |
| 20260504013700 | 70 | 142 | 0.0 | 2.0 | 0.00 | 0.01 | 0.01 | 45 | 1016.9 |
| 20260504013126 | 71 | 142 | 1.0 | 2.0 | 0.00 | 0.01 | 0.01 | 43 | 1017.0 |
| 20260504012700 | 72 | 142 | 1.0 | 2.0 | 0.00 | 0.01 | 0.01 | 40 | 1016.9 |
| 20260504012145 | 72 | 142 | 1.0 | 2.0 | 0.00 | 0.01 | 0.01 | 39 | 1016.9 |
| 20260504011650 | 73 | 142 | 1.0 | 4.0 | 0.00 | 0.01 | 0.01 | 38 | 1016.9 |
| 20260504011123 | 73 | 148 | 1.0 | 4.0 | 0.00 | 0.01 | 0.01 | 37 | 1016.7 |
| 20260504010649 | 73 | 149 | 2.0 | 5.0 | 0.00 | 0.01 | 0.01 | 37 | 1016.6 |
| 20260504010127 | 73 | 154 | 2.0 | 6.0 | 0.00 | 0.01 | 0.01 | 36 | 1016.6 |
| 20260504005652 | 73 | 161 | 2.0 | 6.0 | 0.00 | 0.01 | 0.01 | 35 | 1016.7 |
| 20260504005125 | 74 | 161 | 2.0 | 10.0 | 0.00 | 0.01 | 0.01 | 35 | 1016.6 |
| 20260504004649 | 74 | 154 | 4.0 | 10.0 | 0.00 | 0.01 | 0.01 | 34 | 1016.5 |
| 20260504004200 | 74 | 175 | 5.0 | 8.0 | 0.00 | 0.01 | 0.01 | 33 | 1016.6 |
| 20260504003728 | 74 | 197 | 4.0 | 9.0 | 0.00 | 0.01 | 0.01 | 33 | 1016.6 |
| 20260504003132 | 75 | 181 | 6.0 | 10.0 | 0.00 | 0.01 | 0.01 | 32 | 1016.7 |
| 20260504002646 | 75 | 171 | 6.0 | 10.0 | 0.00 | 0.01 | 0.01 | 31 | 1016.8 |
| 20260504002212 | 75 | 167 | 3.0 | 12.0 | 0.00 | 0.01 | 0.01 | 32 | 1016.9 |
| 20260504001625 | 75 | 181 | 7.0 | 13.0 | 0.00 | 0.01 | 0.01 | 32 | 1017.0 |
| 20260504001148 | 75 | 165 | 8.0 | 13.0 | 0.00 | 0.01 | 0.01 | 31 | 1017.0 |
| 20260504000618 | 76 | 194 | 6.0 | 10.0 | 0.00 | 0.01 | 0.01 | 33 | 1016.9 |
| 20260504000151 | 76 | 162 | 6.0 | 10.0 | 0.00 | 0.01 | 0.01 | 32 | 1017.1 |
| 20260503235655 | 76 | 186 | 6.0 | 10.0 | 0.00 | 0.01 | 0.01 | 32 | 1017.0 |
| 20260503235128 | 76 | 172 | 5.0 | 11.0 | 0.00 | 0.01 | 0.01 | 32 | 1017.1 |
| 20260503234634 | 76 | 177 | 6.0 | 11.0 | 0.00 | 0.01 | 0.01 | 30 | 1017.1 |
| 20260503234206 | 76 | 180 | 5.0 | 11.0 | 0.00 | 0.01 | 0.01 | 32 | 1017.2 |
| 20260503233628 | 76 | 173 | 7.0 | 11.0 | 0.00 | 0.01 | 0.01 | 31 | 1017.1 |
| 20260503233201 | 76 | 162 | 6.0 | 11.0 | 0.00 | 0.01 | 0.01 | 31 | 1017.1 |
| 20260503232727 | 76 | 173 | 6.0 | 11.0 | 0.00 | 0.01 | 0.01 | 32 | 1017.2 |
| 20260503232137 | 77 | 154 | 7.0 | 11.0 | 0.00 | 0.01 | 0.01 | 32 | 1017.2 |
| 20260503231702 | 77 | 232 | 5.0 | 11.0 | 0.00 | 0.01 | 0.01 | 33 | 1017.2 |
| 20260503231138 | 77 | 174 | 5.0 | 14.0 | 0.00 | 0.01 | 0.01 | 34 | 1017.1 |
| 20260503230704 | 77 | 211 | 5.0 | 14.0 | 0.00 | 0.01 | 0.01 | 35 | 1017.1 |
| 20260503230208 | 77 | 177 | 7.0 | 14.0 | 0.00 | 0.01 | 0.01 | 34 | 1017.3 |
| 20260503225620 | 77 | 219 | 7.0 | 14.0 | 0.00 | 0.01 | 0.01 | 32 | 1017.3 |
| 20260503225145 | 77 | 190 | 6.0 | 11.0 | 0.00 | 0.01 | 0.01 | 32 | 1017.3 |
| 20260503224658 | 77 | 180 | 7.0 | 12.0 | 0.00 | 0.01 | 0.01 | 34 | 1017.2 |
| 20260503224123 | 77 | 157 | 8.0 | 12.0 | 0.00 | 0.01 | 0.01 | 32 | 1017.2 |
| 20260503223657 | 77 | 115 | 4.0 | 12.0 | 0.00 | 0.01 | 0.01 | 35 | 1017.2 |
| 20260503223119 | 77 | 127 | 6.0 | 12.0 | 0.00 | 0.01 | 0.01 | 33 | 1017.3 |
| 20260503222653 | 78 | 165 | 7.0 | 11.0 | 0.00 | 0.01 | 0.01 | 33 | 1017.4 |
| 20260503222122 | 78 | 202 | 7.0 | 13.0 | 0.00 | 0.01 | 0.01 | 33 | 1017.5 |
| 20260503221655 | 77 | 156 | 3.0 | 8.0 | 0.00 | 0.01 | 0.01 | 35 | 1017.6 |
| 20260503221118 | 77 | 188 | 4.0 | 11.0 | 0.00 | 0.01 | 0.01 | 35 | 1017.6 |
| 20260503220644 | 77 | 134 | 5.0 | 11.0 | 0.00 | 0.01 | 0.01 | 32 | 1017.7 |
| 20260503220155 | 77 | 179 | 6.0 | 12.0 | 0.00 | 0.01 | 0.01 | 31 | 1017.8 |
| 20260503215720 | 77 | 180 | 7.0 | 12.0 | 0.00 | 0.01 | 0.01 | 32 | 1018.0 |
| 20260503215132 | 77 | 223 | 5.0 | 11.0 | 0.00 | 0.01 | 0.01 | 34 | 1018.0 |
| 20260503214657 | 77 | 155 | 6.0 | 12.0 | 0.00 | 0.01 | 0.01 | 31 | 1018.2 |
| 20260503214125 | 78 | 224 | 8.0 | 12.0 | 0.00 | 0.01 | 0.01 | 30 | 1018.3 |
| 20260503213631 | 77 | 153 | 7.0 | 10.0 | 0.00 | 0.01 | 0.01 | 30 | 1018.4 |
| 20260503213114 | 77 | 135 | 4.0 | 12.0 | 0.00 | 0.01 | 0.01 | 34 | 1018.4 |
| 20260503212642 | 77 | 148 | 7.0 | 14.0 | 0.00 | 0.01 | 0.01 | 33 | 1018.5 |
| 20260503212208 | 77 | 134 | 7.0 | 14.0 | 0.00 | 0.01 | 0.01 | 34 | 1018.5 |
| 20260503211644 | 77 | 138 | 8.0 | 11.0 | 0.00 | 0.01 | 0.01 | 33 | 1018.5 |
| 20260503211212 | 77 | 141 | 4.0 | 13.0 | 0.00 | 0.01 | 0.01 | 34 | 1018.6 |
| 20260503210643 | 77 | 105 | 6.0 | 15.0 | 0.00 | 0.01 | 0.01 | 35 | 1018.8 |
| 20260503210144 | 77 | 157 | 9.0 | 15.0 | 0.00 | 0.01 | 0.01 | 32 | 1018.9 |
| 20260503205657 | 77 | 139 | 6.0 | 12.0 | 0.00 | 0.01 | 0.01 | 35 | 1019.0 |
| 20260503205122 | 77 | 124 | 7.0 | 12.0 | 0.00 | 0.01 | 0.01 | 33 | 1019.1 |
| 20260503204657 | 77 | 150 | 6.0 | 13.0 | 0.00 | 0.01 | 0.01 | 32 | 1019.3 |
| 20260503204121 | 77 | 193 | 6.0 | 13.0 | 0.00 | 0.01 | 0.01 | 34 | 1019.4 |
| 20260503203648 | 77 | 134 | 8.0 | 13.0 | 0.00 | 0.01 | 0.01 | 32 | 1019.4 |
| 20260503203221 | 77 | 169 | 3.0 | 12.0 | 0.00 | 0.01 | 0.01 | 35 | 1019.5 |
| 20260503202725 | 77 | 151 | 6.0 | 12.0 | 0.00 | 0.01 | 0.01 | 32 | 1019.6 |
| 20260503202137 | 77 | 213 | 4.0 | 13.0 | 0.00 | 0.01 | 0.01 | 30 | 1019.7 |
| 20260503201642 | 77 | 214 | 7.0 | 13.0 | 0.00 | 0.01 | 0.01 | 34 | 1019.8 |
| 20260503201155 | 77 | 192 | 5.0 | 13.0 | 0.00 | 0.01 | 0.01 | 33 | 1019.9 |
| 20260503200721 | 77 | 210 | 6.0 | 9.0 | 0.00 | 0.01 | 0.01 | 38 | 1019.9 |